Location: Baia de Cri?
(46.1667°N, 22.7167°E)
Time: 20:49:56
(UTC+00:00)

Cosmos 1833 Rocket - Pass Details

Date: 15 January 2026
Orbit: 831 x 839 km, 71.0° (Epoch: 10 February)

Event Time Altitude Azimuth Distance (km) Brightness Sun altitude
Exits shadow 05:09:22 12° 279° (W) 2,309 4.3 -10.0°
Maximum altitude 05:10:44 13° 264° (W) 2,238 4.4 -9.7°
Drops below altitude 10° 05:13:10 10° 238° (WSW) 2,442 4.8 -9.4°
Sets 05:16:59 0° 211° (SSW) 3,368 5.7 -8.7°
